Location: Unnamed
(47.6264°N, 122.3366°W)
Time: 20:20:28
(UTC-07:00)

ELYUSIUM/LOWER FREE FLYE - Pass Details

Date: 06 August 2020
Orbit: 571 x 589 km, 97.7° (Epoch: 21 September)

Event Time Altitude Azimuth Distance (km) Brightness Sun altitude
Exits shadow 22:39:36 37° 139° (SE) 902 ? -17.2°
Maximum altitude 22:41:02 63° 73° (ENE) 645 ? -17.4°
Drops below altitude 10° 22:45:05 10° 353° (N) 1,894 ? -17.8°
Sets 22:47:16 0° 350° (N) 2,800 ? -18.0°
